Powrót do katalogu

STARLINK-34603

AktywnyŁącznośćVLEO
NORAD 65220·PAYLOAD·🇺🇸 United States

Wystrzelony Aug 14, 2025 z Cape Canaveral Space Force Station

Loading…

Następne Przeloty (najbliższe 24 godziny)

TLE

ŚwieżeSource: CelesTrak SupGP

Epoka: Sep 14, 2026, 15:24 UTC

1 65220C 25176Y   26257.64215278 -.00077222  00000+0 -22829-2 0  2576
2 65220  53.1594 350.8927 0001072  80.8683 102.7718 15.34411022    11

Śledź STARLINK-34603 w czasie rzeczywistym z AllMySat

Download on the App Store